Weather History for KBOS - March, 2012

Change the Weather History Date:

Thursday, March 1, 2012

  Actual Average Record
Temperature  
Mean Temperature 31 °F 34 °F  
Max Temperature 37 °F 42 °F 63 °F (1991)
Min Temperature 25 °F 27 °F -1 °F (1886)
Degree Days  
Heating Degree Days 34 31  
Month to date heating degree days 34 31  
Since 1 July heating degree days 3269 4073  
Cooling Degree Days 0 0  
Month to date cooling degree days 0 0  
Year to date cooling degree days 0 0  
Moisture  
Dew Point 32 °F    
Average Humidity 90    
Maximum Humidity 96    
Minimum Humidity 84    
Precipitation  
Precipitation 0.58 in 0.14 in 1.72 in (1987)
Month to date precipitation 0.58 0.14  
Year to date precipitation 4.25 6.75  
Sea Level Pressure  
Sea Level Pressure 29.86 in    
Wind  
Wind Speed 22 mph (NE)    
Max Wind Speed 31 mph    
Max Gust Speed 38 mph    
Visibility 3 miles    
Events Rain , Snow    
T = Trace of Precipitation, MM = Missing Value Source: NWS Daily Summary

Daily Weather History Graph

Daily Weather History Graph

Search for Another Location

Airport or City:

Trip Planner

Search our weather history database for the weather conditions in past years. The results will help you decide how hot, cold, wet, or windy it might be!

Date:

Astronomy

Mar. 01, 2012 Rise Set
Actual Time 6:18 AM EST 5:34 PM EST
Civil Twilight 5:50 AM EST 6:02 PM EST
Nautical Twilight 5:18 AM EST 6:35 PM EST
Astronomical Twilight 4:45 AM EST 7:07 PM EST
Moon 10:46 AM EST (3/1) 1:20 AM EST (3/1)
Length of Visible Light 12h 12m
Length of Day
11h 15m
First Quarter, 56% of the Moon is Illuminated
Mar 1
First Quarter
Mar 8
Full
Mar 14
Last Quarter
Mar 22
New
Mar 30
First Quarter

Hourly Weather History & Observations

Time (EST) Temp. Windchill Dew Point Humidity Pressure Visibility Wind Dir Wind Speed Gust Speed Precip Events Conditions
12:54 AM 37.0 °F 25.6 °F 34.0 °F 89% 29.92 in 3.0 mi East 24.2 mph - 0.02 in Rain Light Rain
1:04 AM 37.4 °F 26.9 °F 33.8 °F 87% 29.92 in 2.5 mi East 20.7 mph 28.8 mph 0.00 in Rain Light Rain
1:21 AM 37.4 °F 26.4 °F 33.8 °F 87% 29.91 in 3.0 mi East 23.0 mph 32.2 mph 0.00 in Rain Light Rain
1:35 AM 37.4 °F 25.6 °F 33.8 °F 87% 29.89 in 2.5 mi East 26.5 mph - 0.01 in Rain Light Rain
1:54 AM 37.0 °F 25.9 °F 35.1 °F 93% 29.89 in 2.5 mi ENE 23.0 mph 29.9 mph 0.01 in Rain Light Rain
2:42 AM 37.4 °F 26.1 °F 33.8 °F 87% 29.88 in 3.0 mi East 24.2 mph - 0.04 in Rain Light Rain
2:54 AM 37.0 °F 25.6 °F 34.0 °F 89% 29.87 in 3.0 mi East 24.2 mph - 0.05 in Rain Light Rain
3:09 AM 35.6 °F 23.4 °F 33.8 °F 93% 29.87 in 3.0 mi East 25.3 mph 31.1 mph 0.04 in Rain Rain
3:54 AM 36.0 °F 23.7 °F 34.0 °F 93% 29.86 in 4.0 mi ENE 26.5 mph 32.2 mph 0.11 in Rain Light Rain
4:54 AM 36.0 °F 23.2 °F 34.0 °F 93% 29.82 in 4.0 mi East 28.8 mph 33.4 mph 0.07 in Rain Rain
5:54 AM 37.0 °F 24.7 °F 34.0 °F 89% 29.78 in 4.0 mi East 28.8 mph 33.4 mph 0.03 in Rain Light Rain
6:54 AM 37.0 °F 25.9 °F 34.0 °F 89% 29.81 in 6.0 mi East 23.0 mph 31.1 mph 0.03 in Rain Light Rain
7:05 AM 35.6 °F 23.7 °F 33.8 °F 93% 29.81 in 2.5 mi East 24.2 mph 29.9 mph 0.01 in Rain Rain
7:32 AM 35.6 °F 23.7 °F 33.8 °F 93% 29.82 in 2.0 mi ENE 24.2 mph 28.8 mph 0.05 in Rain Rain
7:54 AM 36.0 °F 23.9 °F 33.1 °F 89% 29.81 in 2.5 mi ENE 25.3 mph 32.2 mph 0.07 in Rain Light Rain
8:04 AM 35.6 °F 23.2 °F 33.8 °F 93% 29.80 in 4.0 mi ENE 26.5 mph 33.4 mph 0.02 in Rain Light Rain
8:54 AM 37.0 °F 24.9 °F 35.1 °F 93% 29.78 in 4.0 mi ENE 27.6 mph 33.4 mph 0.03 in Rain Light Rain
9:06 AM 37.4 °F 25.4 °F 35.6 °F 93% 29.78 in 5.0 mi ENE 27.6 mph 34.5 mph 0.01 in Rain Light Rain
9:15 AM 35.6 °F 23.7 °F 33.8 °F 93% 29.78 in 5.0 mi ENE 24.2 mph 34.5 mph 0.01 in Rain Light Rain
9:54 AM 37.0 °F 25.6 °F 35.1 °F 93% 29.77 in 4.0 mi ENE 24.2 mph 33.4 mph 0.01 in Rain Light Rain
10:54 AM 37.0 °F 24.9 °F 34.0 °F 89% 29.78 in 4.0 mi ENE 27.6 mph 34.5 mph 0.00 in Rain Light Rain
11:54 AM 37.0 °F 25.4 °F 35.1 °F 93% 29.77 in 4.0 mi ENE 25.3 mph 35.7 mph 0.02 in Rain Light Rain
12:54 PM 37.0 °F 26.7 °F 34.0 °F 89% 29.76 in 4.0 mi ENE 19.6 mph 32.2 mph 0.02 in Rain Light Rain
1:54 PM 36.0 °F 25.6 °F 34.0 °F 93% 29.78 in 5.0 mi NE 18.4 mph 31.1 mph 0.04 in Rain Light Rain
2:54 PM 36.0 °F 24.4 °F 34.0 °F 93% 29.79 in 5.0 mi NE 23.0 mph 33.4 mph 0.03 in Rain Light Rain
3:39 PM 35.6 °F 23.0 °F 33.8 °F 93% 29.79 in 7.0 mi NE 27.6 mph 33.4 mph 0.00 in Rain Light Rain
3:46 PM 35.6 °F 24.0 °F 33.8 °F 93% 29.79 in 6.0 mi NE 23.0 mph 31.1 mph 0.00 in Rain Light Rain
3:54 PM 36.0 °F 24.2 °F 33.1 °F 89% 29.80 in 5.0 mi NE 24.2 mph 36.8 mph 0.00 in Rain Rain
4:21 PM 35.6 °F 24.0 °F 33.8 °F 93% 29.81 in 6.0 mi NE 23.0 mph 28.8 mph 0.00 in Rain , Snow Light Snow
4:54 PM 36.0 °F 23.7 °F 33.1 °F 89% 29.82 in 5.0 mi NE 26.5 mph 32.2 mph 0.00 in Rain , Snow Light Snow
5:30 PM 35.6 °F 24.2 °F 32.0 °F 87% 29.85 in 2.0 mi NNE 21.9 mph 32.2 mph 0.00 in Snow Light Snow
5:54 PM 35.1 °F 23.8 °F 32.0 °F 89% 29.86 in 2.0 mi NNE 20.7 mph 26.5 mph 0.01 in Snow Light Snow
6:49 PM 33.8 °F 23.2 °F 32.0 °F 93% 29.89 in 2.0 mi NE 17.3 mph 27.6 mph 0.02 in Snow Light Snow
6:54 PM 34.0 °F 22.4 °F 32.0 °F 92% 29.89 in 2.0 mi NE 20.7 mph 27.6 mph 0.02 in Snow Light Snow
7:04 PM 33.8 °F 22.8 °F 30.2 °F 87% 29.90 in 2.0 mi NE 18.4 mph 26.5 mph 0.00 in Snow Light Snow
7:16 PM 33.8 °F 22.5 °F 30.2 °F 87% 29.90 in 2.0 mi NNE 19.6 mph 27.6 mph 0.00 in Snow Light Snow
7:23 PM 33.8 °F 22.5 °F 30.2 °F 87% 29.90 in 2.0 mi NNE 19.6 mph - 0.00 in Snow Light Snow
7:28 PM 33.8 °F 22.5 °F 30.2 °F 87% 29.90 in 1.0 mi NE 19.6 mph - 0.00 in Snow Light Snow
7:37 PM 33.8 °F 22.8 °F 30.2 °F 87% 29.91 in 1.0 mi NNE 18.4 mph - 0.01 in Snow Light Snow
7:54 PM 33.1 °F 21.9 °F 30.9 °F 92% 29.92 in 1.0 mi NNE 18.4 mph 24.2 mph 0.01 in Snow Light Snow
8:21 PM 30.2 °F 22.6 °F 28.4 °F 93% 29.93 in 1.0 mi NNW 8.1 mph - 0.00 in Snow Light Snow
8:54 PM 28.0 °F 16.5 °F 25.0 °F 88% 29.95 in 1.0 mi NNW 15.0 mph - 0.00 in Snow Light Snow
9:09 PM 26.6 °F 15.2 °F 24.8 °F 93% 29.96 in 1.0 mi North 13.8 mph - 0.00 in Snow Light Snow
9:54 PM 26.1 °F 14.5 °F 23.0 °F 88% 29.98 in 1.0 mi North 13.8 mph - 0.00 in Snow Light Snow
10:30 PM 26.6 °F 14.3 °F 21.2 °F 80% 29.99 in 3.0 mi North 16.1 mph - 0.00 in Snow Light Snow
10:54 PM 25.0 °F 12.6 °F 21.0 °F 85% 30.00 in 7.0 mi North 15.0 mph - 0.00 in Snow Light Snow
11:54 PM 25.0 °F 13.6 °F 21.0 °F 85% 30.02 in 10.0 mi NNW 12.7 mph 21.9 mph 0.00 in   Overcast